Location: Ellerstadt
(49.4644°N, 8.2615°E)
Time: 23:25:43
(UTC+00:00)

Cosmos 1633 Rocket - Pass Details

Date: 03 March 2021
Orbit: 606 x 624 km, 82.5° (Epoch: 13 April)

Event Time Altitude Azimuth Distance (km) Brightness Sun altitude
Rises 17:56:40 0° 184° (S) 2,891 6.6 -7.9°
Reaches altitude 10° 17:58:53 10° 182° (S) 1,991 5.7 -8.2°
Maximum altitude 18:03:17 76° 98° (E) 649 3.0 -8.9°
Drops below altitude 10° 18:07:44 10° 13° (NNE) 2,010 5.6 -9.7°
Sets 18:09:59 0° 12° (NNE) 2,921 6.4 -10.0°
